DW8969 Bellingham WA US current weather conditions

sailwx.info

Wind from 134 at 0 knots

Air temperature 13.9° C
Dewpoint 10.9° C

Last reported at 2020-Aug-11 09:00 UTC.
Time now 2020-Aug-11 10:15 UTC

Location: N 48°43' W 122°31'.
View on Google Maps.

See reports from other nearby stations

  
Tides and Currents Weather Stations Pressure Air Temp Water Temp Dewpoint Dewpoint Depression Visibility Wind Speed Wind Dir Waves Ship Positions
date/time (UTC)wind fromknots sea level pressurealtimeterstation pressurevisibilityair tempwater tempwave heightnotes
2020-Aug-11 09:00 134 0 13.9
2020-Aug-11 08:46 164 0 13.9
2020-Aug-11 08:30 163 0 14.4
2020-Aug-11 08:15 163 1 15.0
2020-Aug-11 08:00 147 0 15.0
2020-Aug-11 07:45 114 0 15.6
2020-Aug-11 07:30 140 0 15.6
2020-Aug-11 07:15 161 1 15.0
2020-Aug-11 07:00 167 3 15.0
2020-Aug-11 06:45 167 1 15.0
2020-Aug-11 06:30 148 2 15.0
2020-Aug-11 06:15 166 2 15.6
2020-Aug-11 06:00 162 1 15.6
2020-Aug-11 05:45 165 2 15.6
2020-Aug-11 05:30 161 1 16.1
2020-Aug-11 05:15 178 1 16.7
2020-Aug-11 05:00 167 1 16.7
2020-Aug-11 04:45 121 1 17.2
2020-Aug-11 04:30 170 1 17.8
2020-Aug-11 04:15 170 1 18.3
2020-Aug-11 04:00 138 1 18.9
2020-Aug-11 03:45 252 0 19.4
2020-Aug-11 03:30 252 20.0
2020-Aug-11 03:15 252 0 20.0
2020-Aug-11 03:01 252 21.1
2020-Aug-11 02:46 252 21.7
2020-Aug-11 02:32 252 21.7
2020-Aug-11 02:16 252 22.2
2020-Aug-11 02:01 252 22.2
2020-Aug-11 01:46 252 22.2
2020-Aug-11 01:31 252 22.2
2020-Aug-11 01:17 252 22.2
2020-Aug-11 01:01 252 0 21.7
2020-Aug-11 00:46 289 0 21.7
2020-Aug-11 00:31 261 0 21.1
2020-Aug-11 00:16 294 1 20.6
2020-Aug-11 00:00 263 2 20.0
2020-Aug-10 23:46 255 1 20.0
2020-Aug-10 23:31 321 3 19.4
2020-Aug-10 23:15 265 2 20.0
2020-Aug-10 23:00 260 1 20.0
2020-Aug-10 22:46 304 4 19.4
2020-Aug-10 22:30 313 3 19.4
2020-Aug-10 22:15 272 1 20.0
2020-Aug-10 22:00 271 1 19.4
2020-Aug-10 21:45 278 1 19.4
2020-Aug-10 21:30 309 5 18.9
2020-Aug-10 21:15 300 6 18.9
2020-Aug-10 21:00 306 4 19.4
2020-Aug-10 20:45 307 1 19.4
2020-Aug-10 20:30 304 1 18.9
2020-Aug-10 20:17 252 1 17.8
2020-Aug-10 20:01 248 2 17.2
2020-Aug-10 19:47 257 1 17.2
2020-Aug-10 19:32 260 1 17.2
2020-Aug-10 19:16 254 1 16.7
2020-Aug-10 19:01 248 1 16.7
2020-Aug-10 18:47 242 1 16.7
2020-Aug-10 18:32 223 3 16.1
2020-Aug-10 18:16 247 2 16.1
2020-Aug-10 18:01 217 1 17.8
2020-Aug-10 17:46 217 2 17.8
2020-Aug-10 17:31 229 2 17.8
2020-Aug-10 17:16 184 0 17.2
2020-Aug-10 17:00 223 3 16.1
2020-Aug-10 16:45 207 3 16.7
2020-Aug-10 16:31 172 4 16.7
2020-Aug-10 16:16 243 3 16.7
2020-Aug-10 16:01 236 2 16.7
2020-Aug-10 15:46 207 3 16.1
2020-Aug-10 15:30 226 1 16.1
2020-Aug-10 15:17 234 2 15.6
2020-Aug-10 15:01 221 3 15.6
2020-Aug-10 14:45 230 3 15.6
2020-Aug-10 14:30 221 3 15.6
2020-Aug-10 14:16 143 16.7
2020-Aug-10 14:00 143 0 16.1
2020-Aug-10 13:46 166 14.4
2020-Aug-10 13:30 167 0 14.4
2020-Aug-10 13:15 184 0 14.4
2020-Aug-10 13:00 188 14.4
2020-Aug-10 12:45 188 14.4
2020-Aug-10 12:31 188 0 14.4
2020-Aug-10 12:15 162 13.9
2020-Aug-10 12:00 148 13.9
2020-Aug-10 11:46 148 0 13.9
2020-Aug-10 11:30 150 0 13.9
2020-Aug-10 11:15 162 1 13.9
2020-Aug-10 11:00 200 14.4
2020-Aug-10 10:45 217 15.0
2020-Aug-10 10:30 217 15.0
2020-Aug-10 10:15 217 15.0
2020-Aug-10 10:00 217 15.6
2020-Aug-10 09:45 217 15.6
2020-Aug-10 09:30 190 15.6
2020-Aug-10 09:15 155 15.6
2020-Aug-10 09:00 155 15.6
2020-Aug-10 08:45 155 16.1
2020-Aug-10 08:30 155 16.1
2020-Aug-10 08:19 155 0 16.1
2020-Aug-10 08:02 158 1 16.1
2020-Aug-10 07:46 142 0 16.1
2020-Aug-10 07:31 134 0 15.6
2020-Aug-10 07:16 128 1 15.6
2020-Aug-10 07:01 171 1 15.6
2020-Aug-10 06:46 130 2 16.1
2020-Aug-10 06:30 138 0 16.1
2020-Aug-10 06:17 161 0 16.1
2020-Aug-10 06:01 169 2 16.1
2020-Aug-10 05:46 163 1 16.7
2020-Aug-10 05:31 153 1 16.7
2020-Aug-10 05:16 117 1 17.2
2020-Aug-10 05:01 160 3 17.8
2020-Aug-10 04:46 161 2 17.8
2020-Aug-10 04:30 155 1 18.3
2020-Aug-10 04:16 174 1 18.9
2020-Aug-10 04:01 113 1 19.4
2020-Aug-10 03:46 291 1 20.0
2020-Aug-10 03:31 291 20.6
2020-Aug-10 03:16 291 20.6
2020-Aug-10 03:01 291 0 21.1
2020-Aug-10 02:46 294 0 21.1
2020-Aug-10 02:31 281 0 21.1
2020-Aug-10 02:15 279 0 21.7
2020-Aug-10 02:00 279 0 21.7
2020-Aug-10 01:46 279 1 21.7
2020-Aug-10 01:30 297 0 21.7
2020-Aug-10 01:15 298 0 22.8
2020-Aug-10 01:00 234 23.3
2020-Aug-10 00:45 260 23.9
2020-Aug-10 00:31 260 22.8
2020-Aug-10 00:15 260 0 20.6
2020-Aug-10 00:00 262 1 20.0
2020-Aug-09 23:45 262 1 20.0
2020-Aug-09 23:30 259 2 19.4
2020-Aug-09 23:15 267 2 19.4
2020-Aug-09 23:00 260 2 19.4
2020-Aug-09 22:31 311 2 18.9
2020-Aug-09 22:16 297 2 18.9
2020-Aug-09 22:01 275 2 18.9
2020-Aug-09 21:46 284 3 18.3
2020-Aug-09 21:31 338 5 18.3
2020-Aug-09 21:16 336 4 18.3
2020-Aug-09 21:02 303 2 17.8
2020-Aug-09 20:46 243 4 17.8
2020-Aug-09 20:31 302 3 17.8
2020-Aug-09 20:16 280 3 17.8
2020-Aug-09 20:01 258 3 17.2
2020-Aug-09 19:46 269 2 17.2
2020-Aug-09 19:31 263 3 16.7
2020-Aug-09 19:16 226 1 16.7
2020-Aug-09 19:01 238 1 16.7
2020-Aug-09 18:47 193 2 16.7
2020-Aug-09 18:31 248 1 16.7
2020-Aug-09 18:16 205 4 16.7
2020-Aug-09 18:01 188 2 17.8
2020-Aug-09 17:46 194 1 18.3
2020-Aug-09 17:31 225 0 18.3
2020-Aug-09 17:16 217 2 18.3
2020-Aug-09 17:01 188 2 18.3
2020-Aug-09 16:46 229 2 17.8
2020-Aug-09 16:30 219 2 17.8
2020-Aug-09 16:16 240 1 17.2
2020-Aug-09 16:01 215 2 16.7
2020-Aug-09 15:47 186 2 16.1
2020-Aug-09 15:30 208 2 16.7
2020-Aug-09 15:15 167 0 17.2
2020-Aug-09 15:00 187 16.1
2020-Aug-09 14:45 187 15.6
2020-Aug-09 14:30 187 15.0
2020-Aug-09 14:15 192 1 13.9
2020-Aug-09 14:00 168 0 13.3
2020-Aug-09 13:45 171 1 12.2
2020-Aug-09 13:30 171 0 11.7
2020-Aug-09 13:15 122 1 11.7
2020-Aug-09 13:00 164 0 11.7
2020-Aug-09 12:45 154 11.7
2020-Aug-09 12:30 144 0 11.7
2020-Aug-09 12:15 169 1 11.1
2020-Aug-09 12:00 119 1 11.7
2020-Aug-09 11:45 143 0 11.7
2020-Aug-09 11:30 173 1 11.7
2020-Aug-09 11:15 177 1 12.2
2020-Aug-09 11:00 155 12.2
2020-Aug-09 10:31 168 1 12.2
2020-Aug-09 10:17 196 1 12.2
2020-Aug-09 10:02 155 1 12.2